Regional Weather Roundup
Issued by NWS

Home | Current Version | Previous Version | Graphics & Text | Print | Product List | Glossary On
Versions: 1 2 3 4 5 6 7 8 9 10 11 12 13 14 15 16 17 18 19 20 21 22 23 24 25 26 27 28 29 30 31 32 33 34 35 36 37 38 39 40 41 42 43 44 45 46 47 48 49 50
405
ASUS43 KMPX 281401
RWRMN
WEATHER ROUNDUP FOR MINNESOTA
NATIONAL WEATHER SERVICE TWIN CITIES/CHANHASSEN MN
900 AM CDT SUN AUG 28 2016


NOTE: "FAIR" INDICATES FEW OR NO CLOUDS BELOW 12,000 FEET WITH NO
SIGNIFICANT WEATHER AND/OR OBSTRUCTIONS TO VISIBILITY. N/A MEANS
CURRENT SKY AND/OR WEATHER CONDITIONS ARE NOT AVAILABLE.

MNZ060>063-068>070-281500-
   Twin Cities Metro

CITY           SKY/WX    TMP DP  RH WIND       PRES   REMARKS
TWIN CITIES    CLOUDY    64  63  96 SE3       30.16S FOG
ST PAUL        CLOUDY    64  63  96 SE3       30.17R FOG
CRYSTAL        CLOUDY    62  60  93 CALM      30.16R FOG
BLAINE         FOG       64  64 100 CALM      30.17R VSB 1
LAKEVILLE      FOG       61  61 100 CALM      30.17S VSB 1/2
EDEN PRAIRIE   CLOUDY    64  62  93 S3        30.16R FOG
LAKEVILLE      FOG       61  61 100 CALM      30.17S VSB 1/2
SOUTH ST PAUL  FOG       64  64  99 SE3       30.16F VSB 3/4
LAKE ELMO      FOG       63  63 100 S3        30.18F VSB 1/4
$$
MNZ001>005-007-008-013>017-022>024-027-028-281500-
   Northwest Minnesota

CITY           SKY/WX    TMP DP  RH WIND       PRES   REMARKS
BEMIDJI        CLOUDY    60  60 100 SE6       30.11S FOG
HALLOCK        SUNNY     64  63  94 S10       30.00R
ROSEAU         SUNNY     63  57  82 SE6       30.06R
WARROAD        SUNNY     61  57  88 SE6         N/A
THIEF RVR FALL SUNNY     64  61  90 SE10      30.04F
CROOKSTON      SUNNY     66  63  88 S15       30.03R
FOSSTON        SUNNY     63  61  94 SE9       30.07S
DETROIT LAKES  PTSUNNY   63  63 100 SE12      30.08S FOG
MOORHEAD       SUNNY     66  61  82 SE13G18   30.03S
PARK RAPIDS    FOG       62  60  93 SE9       30.11S VSB 3/4
MAHNOMEN       FAIR      64  62  90 SE10      30.06S
$$
MNZ006-009>011-018-025>026-281500-
   North Central Minnesota

CITY           SKY/WX    TMP DP  RH WIND       PRES   REMARKS
BAUDETTE       FOG       59  58  96 SE7       30.10R VSB 1/2
FLAG ISLAND    CLOUDY    63  61  94 S3        30.07R FOG
INTL FALLS     FOG       58  58 100 VRB3      30.13R VSB 1/2
WASKISH          N/A     61  61 100 SE6       30.11S FOG
BIG FORK       CLOUDY    61  59  94 S6        30.14S FOG
LONGVILLE      FOG       61  61 100 SE6       30.13S VSB 3/4
GRAND RAPIDS   CLOUDY    60  60 100 S7        30.17S FOG
ORR            CLOUDY    57  54  88 S5        30.13S FOG
COOK           CLOUDY    57  55  94 S3        30.16S FOG
WALKER         CLOUDY    60  59  96 SE6       30.12S
$$
MNZ012-019>021-037-281500-
   Northeast Minnesota

CITY           SKY/WX    TMP DP  RH WIND       PRES   REMARKS
DULUTH         CLOUDY    60  59  96 SW5       30.17S FOG
ELY            CLOUDY    57  55  94 SW6       30.16R FOG
HIBBING        CLOUDY    57  57 100 VRB3      30.17R FOG
EVELETH        FOG       58  57  99 SW5       30.18R VSB 1
DULUTH HARBOR  CLOUDY    63  59  88 SW6       30.18R
TWO HARBORS    CLOUDY    63  57  82 CALM      30.15S
SILVER BAY     CLOUDY    61  59  94 CALM      30.16S
G MARAIS ARPRT CLOUDY    61  54  77 CALM      30.18R
$$
MNZ029>031-032-039>041-046>048-054>057-064-281500-
   West Central Minnesota

CITY           SKY/WX    TMP DP  RH WIND       PRES   REMARKS
FERGUS FALLS   SUNNY     66  64  94 SE12      30.08R
WHEATON        SUNNY     68  64  88 SE9       30.05S
MORRIS         CLOUDY    63  63 100 SE8       30.06S
ALEXANDRIA     CLOUDY    63  62  97 SE9       30.11R
ELBOW LAKE     FAIR      65  63  91 E9        30.07S
WADENA         CLOUDY    61  61 100 E8        30.10S FOG
GLENWOOD       CLOUDY    63  63 100 CALM      30.11R FOG
APPLETON       CLOUDY    64  61  88 SE13      30.06S THUNDER
BENSON         TSTM      64  59  82 SW12      30.09R
ORTONVILLE     CLOUDY    64  61  88 S3        30.05F
MADISON        CLOUDY    66  63  88 SE10      30.08S
WILLMAR        FAIR      64  63  94 SE6       30.13S THUNDER
$$
MNZ033>034-036-042>043-049>051-058-059-281500-
   Central Minnesota

CITY           SKY/WX    TMP DP  RH WIND       PRES   REMARKS
ST CLOUD       LGT RAIN  60  60 100 E6        30.12S VSB 1/2
SAUK CENTRE    PTSUNNY   63  62  97 E5        30.11F
PAYNESVILLE    CLOUDY    63  63 100 SE16      30.08F
AITKIN         CLOUDY    66  61  82 SE3       30.13R HAZE
PINE RIVER     CLOUDY    61  61 100 SE6       30.16R FOG
BRAINERD       CLOUDY    63  63 100 SE3       30.14R FOG
STAPLES        CLOUDY    61  61 100 SE3       30.12R
LONG PRAIRIE   CLOUDY    61  61 100 NE7       30.11F FOG
LITTLE FALLS   CLOUDY    61  59  94 SE6       30.13S FOG
LITCHFIELD     CLOUDY    64  64 100 E3        30.13S FOG
BUFFALO        RAIN      60  59  96 E6        30.16S
MAPLE LAKE     CLOUDY    63  63  99 SE5       30.15S
HUTCHINSON     MOSUNNY   64  64  97 SE5       30.14F THUNDER
$$
MNZ037-044-045-052-053-281500-
   East Central Minnesota

CITY           SKY/WX    TMP DP  RH WIND       PRES   REMARKS
PRINCETON      LGT RAIN  63  61  94 SE6       30.15R
MORA           LGT RAIN  59  59 100 SE3       30.17S
CAMBRIDGE      LGT RAIN  63  61  94 CALM      30.14S
RUSH CITY      LGT RAIN  59  58  97 CALM      30.17S
MOOSE LAKE     CLOUDY    61  59  94 CALM      30.15R FOG
HINCKLEY       DRIZZLE   61  61 100 CALM      30.16R
CLOQUET        CLOUDY    61  57  88 CALM      30.16S FOG
MCGREGOR       CLOUDY    61  61 100 SE3       30.16R VSB 1/2
$$
MNZ071>073-080-081-089-090-097-098-281500-
   Southwest Minnesota

CITY           SKY/WX    TMP DP  RH WIND       PRES   REMARKS
MONTEVIDEO     CLOUDY    63  63 100 E10       30.13R THUNDER
GRANITE FALLS  MOSUNNY   70  65  84 E8        30.11S THUNDER
CANBY          MOSUNNY   69  65  88 E9        30.10S THUNDER
MARSHALL       SUNNY     67  64  90 SE12      30.10F
REDWOOD FALLS  MOSUNNY   68  64  87 SE7       30.12F
OLIVIA         CLOUDY    70  64  83 SE8       30.11S THUNDER
PIPESTONE      SUNNY     70  66  88 SE7       30.10S
WINDOM         SUNNY     72  66  83 CALM      30.14R
WORTHINGTON    MOSUNNY   68  66  93 S7        30.13S
JACKSON          N/A     70  64  83 S8        30.14R
TRACY          CLOUDY    65  64  97 SE7       30.13S FOG
SLAYTON        MOSUNNY   64  63  94 NE3       30.13R
$$
MNZ065>067-074>077-082>085-091>093-281500-
   South Central Minnesota

CITY           SKY/WX    TMP DP  RH WIND       PRES   REMARKS
MANKATO        SUNNY     66  64  94 SE7       30.15S
NEW ULM          N/A     64  64 100 NE5       30.15R FOG
ST JAMES       CLOUDY    63  61  94 CALM      30.15R FOG
FAIRMONT       SUNNY     68  66  93 S6        30.14R
GLENCOE        CLOUDY    63  64 100 S7        30.14F
FARIBAULT      CLOUDY    66  66 100 CALM      30.16F
OWATONNA       SUNNY     70  64  83 CALM      30.17R
WASECA         MOSUNNY   68  64  88 E5        30.18R
ALBERT LEA     PTSUNNY   66  66 100 CALM      30.16S FOG
$$
MNZ078>079-086>088-094>096-281500-
   Southeast Minnesota

CITY           SKY/WX    TMP DP  RH WIND       PRES   REMARKS
ROCHESTER      FOG       66  66 100 SE3       30.18S VSB 1/4
RED WING       FOG       66  66 100 E5        30.15F VSB 1/2
DODGE CENTER   MOSUNNY   70  66  88 S3        30.17S
WINONA         CLOUDY    66  66 100 SE6       30.19S FOG
AUSTIN         CLOUDY    66  64  94 CALM      30.17S FOG
PRESTON        FOG       64  63  96 SE3       30.20S VSB 1/4
$$
ABBREVIATIONS USED IN REMARKS
   TC - TEMPERATURES IN CELSIUS
  WCI - WIND CHILL INDEX
   HX - HEAT INDEX
  VSB - VISIBILITY
$$




USA.gov is the U.S. government's official web portal to all federal, state and local government web resources and services.